Location: Arbon
(43.0005°N, 0.7472°E)
Time: 10:51:41
(UTC+00:00)

TIMED - Pass Details

Date: 22 April 2026
Orbit: 581 x 582 km, 74.1° (Epoch: 14 May)

Event Time Altitude Azimuth Distance (km) Brightness Sun altitude
Rises 19:54:45 0° 339° (NNW) 2,813 8.8 -12.0°
Reaches altitude 10° 19:56:58 10° 338° (NNW) 1,908 7.9 -12.4°
Maximum altitude 20:01:13 83° 254° (WSW) 592 4.5 -13.1°
Enters shadow 20:04:56 13° 164° (SSE) 1,684 6.4 -13.6°
